Weather History for Marion, SC

Change the Weather History Date:

Saturday, December 29, 2012

  Actual Average (KFLO) Record (KFLO)
Temperature  
Mean Temperature 47 °F 45 °F  
Max Temperature 53 °F 55 °F 78 °F (1954)
Min Temperature 41 °F 35 °F 19 °F (1977)
Degree Days  
Heating Degree Days 18 20  
Month to date heating degree days 516  
Since 1 July heating degree days 938  
Cooling Degree Days 0 0  
Month to date cooling degree days 0  
Year to date cooling degree days 2059  
Moisture  
Dew Point 42 °F    
Average Humidity 85    
Maximum Humidity 100    
Minimum Humidity 62    
Precipitation  
Precipitation 0.51 in 0.10 in 1.24 in (2013)
Month to date precipitation 2.81  
Year to date precipitation 42.71  
Sea Level Pressure  
Sea Level Pressure 29.83 in    
Wind  
Wind Speed 7 mph (WNW)    
Max Wind Speed 20 mph    
Max Gust Speed 28 mph    
Visibility 8 miles    
Events Rain    
T = Trace of Precipitation, MM = Missing Value Source: NWS Daily Summary

Daily Weather History Graph

Daily Weather History Graph

Search for Another Location

Airport:

Trip Planner

Search our weather history database for the weather conditions in past years. The results will help you decide how hot, cold, wet, or windy it might be!

Date:

Astronomy

Dec. 29, 2012 Rise Set
Actual Time 7:22 AM EST 5:16 PM EST
Civil Twilight 6:54 AM EST 5:44 PM EST
Nautical Twilight 6:23 AM EST 6:15 PM EST
Astronomical Twilight 5:53 AM EST 6:46 PM EST
Moon 6:43 PM EST (12/29) 7:58 AM EST (12/29)
Length of Visible Light 10h 49m
Length of Day
9h 54m
Full, 98% of the Moon is Illuminated
Dec 29
Full
Jan 4
Last Quarter
Jan 11
New
Jan 18
First Quarter
Jan 26
Full

Hourly Weather History & Observations

Time (EST) Temp. Windchill Dew Point Humidity Pressure Visibility Wind Dir Wind Speed Gust Speed Precip Events Conditions
12:15 AM 44.6 °F 42.2 °F 37.4 °F 76% 29.96 in 10.0 mi East 4.6 mph - N/A   Overcast
12:35 AM 44.6 °F 42.2 °F 37.4 °F 76% 29.95 in 10.0 mi East 4.6 mph - N/A   Scattered Clouds
12:55 AM 44.6 °F 42.2 °F 37.4 °F 76% 29.92 in 10.0 mi East 4.6 mph - N/A   Scattered Clouds
1:15 AM 44.6 °F 42.2 °F 37.4 °F 76% 29.92 in 10.0 mi East 4.6 mph - N/A   Mostly Cloudy
1:35 AM 44.6 °F 42.2 °F 37.4 °F 76% 29.90 in 10.0 mi ENE 4.6 mph - N/A   Mostly Cloudy
2:15 AM 44.6 °F - 41.0 °F 87% 29.91 in 10.0 mi Calm Calm - N/A Rain Rain
2:35 AM 44.6 °F 42.2 °F 41.0 °F 87% 29.90 in 10.0 mi NE 4.6 mph - N/A Rain Light Rain
2:55 AM 44.6 °F 42.2 °F 42.8 °F 93% 29.90 in 10.0 mi North 4.6 mph - 0.01 in Rain Light Rain
3:15 AM 42.8 °F 38.6 °F 42.8 °F 100% 29.87 in 10.0 mi North 6.9 mph - N/A Rain Light Rain
3:35 AM 42.8 °F 39.3 °F 42.8 °F 100% 29.85 in 10.0 mi North 5.8 mph - N/A   Light Drizzle
3:55 AM 42.8 °F 37.5 °F 42.8 °F 100% 29.82 in 10.0 mi North 9.2 mph - N/A   Overcast
4:15 AM 42.8 °F 37.5 °F 42.8 °F 100% 29.82 in 5.0 mi North 9.2 mph - 0.05 in Rain Heavy Rain
4:35 AM 42.8 °F 38.0 °F 42.8 °F 100% 29.79 in 4.0 mi NNE 8.1 mph - 0.12 in Rain Heavy Rain
4:55 AM 42.8 °F 37.0 °F 42.8 °F 100% 29.80 in 4.0 mi North 10.4 mph - 0.20 in Rain Heavy Rain
5:15 AM 42.8 °F 37.0 °F 42.8 °F 100% 29.81 in 2.5 mi North 10.4 mph - 0.13 in Rain Heavy Rain
5:35 AM 42.8 °F 38.6 °F 42.8 °F 100% 29.78 in 5.0 mi North 6.9 mph - 0.16 in Rain Heavy Rain
5:55 AM 42.8 °F 37.0 °F 42.8 °F 100% 29.81 in 4.0 mi NNW 10.4 mph - 0.22 in Rain Heavy Rain
6:15 AM 41.0 °F 34.7 °F 41.0 °F 100% 29.77 in 4.0 mi North 10.4 mph - 0.04 in Rain Heavy Rain
6:35 AM 41.0 °F 34.7 °F 41.0 °F 100% 29.77 in 5.0 mi North 10.4 mph - 0.05 in Rain Rain
7:15 AM 41.0 °F 36.4 °F 41.0 °F 100% 29.76 in 5.0 mi NNE 6.9 mph - 0.01 in Rain Light Rain
7:35 AM 41.0 °F 37.1 °F 41.0 °F 100% 29.75 in 5.0 mi NNE 5.8 mph - 0.02 in Rain Rain
7:55 AM 41.0 °F 37.1 °F 41.0 °F 100% 29.73 in 5.0 mi SSW 5.8 mph - 0.03 in   Drizzle
8:15 AM 42.8 °F 39.3 °F 42.8 °F 100% 29.72 in 7.0 mi ESE 5.8 mph - N/A   Overcast
8:35 AM 42.8 °F - 42.8 °F 100% 29.72 in 7.0 mi Calm Calm - N/A   Overcast
8:55 AM 42.8 °F - 42.8 °F 100% 29.72 in 7.0 mi Calm Calm - N/A   Overcast
9:35 AM 42.8 °F 38.6 °F 42.8 °F 100% 29.76 in 5.0 mi WNW 6.9 mph - N/A   Overcast
9:55 AM 44.6 °F 41.4 °F 44.6 °F 100% 29.77 in 5.0 mi WNW 5.8 mph - N/A   Overcast
10:15 AM 44.6 °F 40.7 °F 44.6 °F 100% 29.77 in 3.0 mi West 6.9 mph - N/A   Overcast
10:35 AM 44.6 °F 38.1 °F 44.6 °F 100% 29.79 in 3.0 mi West 13.8 mph 17.3 mph N/A   Light Drizzle
11:15 AM 44.6 °F 39.7 °F 44.6 °F 100% 29.78 in 7.0 mi WNW 9.2 mph - N/A   Overcast
11:35 AM 46.4 °F 42.9 °F 46.4 °F 100% 29.78 in 10.0 mi West 6.9 mph - N/A   Overcast
12:15 PM 46.4 °F 42.4 °F 46.4 °F 100% 29.75 in 10.0 mi West 8.1 mph - N/A   Overcast
12:55 PM 50.0 °F - 48.2 °F 94% 29.73 in 10.0 mi West 11.5 mph 18.4 mph N/A   Overcast
1:15 PM 50.0 °F - 46.4 °F 87% 29.73 in 10.0 mi West 12.7 mph - N/A   Overcast
1:35 PM 50.0 °F - 46.4 °F 87% 29.74 in 10.0 mi West 15.0 mph 24.2 mph N/A   Overcast
1:55 PM 51.8 °F - 44.6 °F 76% 29.74 in 10.0 mi West 11.5 mph 23.0 mph N/A   Overcast
2:15 PM 51.8 °F - 44.6 °F 76% 29.74 in 10.0 mi WNW 11.5 mph 19.6 mph N/A   Overcast
2:35 PM 51.8 °F - 44.6 °F 76% 29.73 in 10.0 mi West 11.5 mph - N/A   Overcast
3:15 PM 51.8 °F - 42.8 °F 71% 29.75 in 10.0 mi West 16.1 mph 23.0 mph N/A   Overcast
3:35 PM 51.8 °F - 42.8 °F 71% 29.75 in 10.0 mi West 11.5 mph - N/A   Mostly Cloudy
4:15 PM 53.6 °F - 42.8 °F 67% 29.77 in 10.0 mi West 15.0 mph 20.7 mph N/A   Mostly Cloudy
4:35 PM 53.6 °F - 42.8 °F 67% 29.78 in 10.0 mi WNW 10.4 mph 18.4 mph N/A   Scattered Clouds
4:55 PM 51.8 °F - 42.8 °F 71% 29.79 in 10.0 mi West 9.2 mph - N/A   Scattered Clouds
5:15 PM 51.8 °F - 42.8 °F 71% 29.80 in 10.0 mi West 8.1 mph - N/A   Mostly Cloudy
5:35 PM 50.0 °F - 42.8 °F 76% 29.81 in 10.0 mi West 6.9 mph - N/A   Overcast
5:55 PM 50.0 °F - 42.8 °F 76% 29.82 in 10.0 mi West 5.8 mph - N/A   Overcast
6:15 PM 50.0 °F - 42.8 °F 76% 29.82 in 10.0 mi WSW 4.6 mph - N/A   Overcast
6:35 PM 48.2 °F - 42.8 °F 82% 29.83 in 10.0 mi SW 4.6 mph - N/A   Mostly Cloudy
6:55 PM 46.4 °F 45.2 °F 42.8 °F 87% 29.84 in 10.0 mi WSW 3.5 mph - N/A   Scattered Clouds
7:15 PM 44.6 °F 42.2 °F 42.8 °F 93% 29.84 in 10.0 mi WSW 4.6 mph - N/A   Clear
7:35 PM 46.4 °F 41.9 °F 42.8 °F 87% 29.86 in 10.0 mi WSW 9.2 mph - N/A   Mostly Cloudy
7:55 PM 50.0 °F - 42.8 °F 76% 29.86 in 10.0 mi West 10.4 mph - N/A   Overcast
8:15 PM 50.0 °F - 41.0 °F 71% 29.87 in 10.0 mi West 12.7 mph 20.7 mph N/A   Overcast
8:35 PM 50.0 °F - 39.2 °F 66% 29.88 in 10.0 mi West 19.6 mph 27.6 mph N/A   Overcast
8:55 PM 50.0 °F - 37.4 °F 62% 29.89 in 10.0 mi West 13.8 mph 25.3 mph N/A   Overcast
9:15 PM 48.2 °F - 37.4 °F 66% 29.91 in 10.0 mi West 13.8 mph 20.7 mph N/A   Overcast
9:35 PM 48.2 °F - 37.4 °F 66% 29.92 in 10.0 mi West 13.8 mph 21.9 mph N/A   Overcast
9:55 PM 46.4 °F 41.9 °F 39.2 °F 76% 29.93 in 10.0 mi West 9.2 mph - N/A   Overcast
10:15 PM 46.4 °F 41.9 °F 37.4 °F 71% 29.94 in 10.0 mi West 9.2 mph - N/A   Overcast
10:35 PM 46.4 °F 41.9 °F 37.4 °F 71% 29.95 in 10.0 mi West 9.2 mph - N/A   Overcast
10:55 PM 46.4 °F 41.9 °F 37.4 °F 71% 29.96 in 10.0 mi West 9.2 mph - N/A   Mostly Cloudy
11:15 PM 44.6 °F 39.7 °F 37.4 °F 76% 29.98 in 10.0 mi West 9.2 mph - N/A   Mostly Cloudy
11:35 PM 44.6 °F 40.7 °F 35.6 °F 71% 29.99 in 10.0 mi West 6.9 mph - N/A   Scattered Clouds
11:55 PM 42.8 °F 38.0 °F 35.6 °F 76% 30.00 in 10.0 mi West 8.1 mph - N/A   Scattered Clouds